When you browse on this site, cookies collect data to enhance your experience and personalize the content and advertising you see.
Visit our Privacy Policy to learn more. By continuing to use the site, you agree to this use of cookies and data.
  • în România
  • Lista ţărilor
  • Pe 7 zile
  • Temperatura apei
  • Meteo pe hartă
  • Widget-uri
  • user-avatar
    Intrare

    Meteo pe oră la Koudougou

    Astăzi, 17 Noiembrie, Duminică

    Timp Temperatura Precipitaţii Vânt Presiune Umiditate
    00:00 +29°C° 0 mm 2 m/s 731 mmHg 19%
    01:00 +29°C° 0 mm 2 m/s 731 mmHg 20%
    02:00 +29°C° 0 mm 2 m/s 731 mmHg 20%
    03:00 +28°C° 0 mm 2 m/s 730 mmHg 21%
    04:00 +28°C° 0 mm 3 m/s 731 mmHg 21%
    05:00 +27°C° 0 mm 3 m/s 731 mmHg 22%
    06:00 +27°C° 0 mm 3 m/s 731 mmHg 22%
    07:00 +29°C° 0 mm 4 m/s 732 mmHg 20%
    08:00 +33°C° 0 mm 4 m/s 732 mmHg 18%
    09:00 +35°C° 0 mm 5 m/s 732 mmHg 15%
    10:00 +37°C° 0 mm 5 m/s 732 mmHg 14%
    11:00 +40°C° 0 mm 5 m/s 732 mmHg 13%
    12:00 +41°C° 0 mm 5 m/s 731 mmHg 11%
    13:00 +41°C° 0 mm 5 m/s 731 mmHg 11%
    14:00 +41°C° 0 mm 4 m/s 730 mmHg 11%
    15:00 +42°C° 0 mm 4 m/s 729 mmHg 11%
    16:00 +40°C° 0 mm 4 m/s 729 mmHg 12%
    17:00 +37°C° 0 mm 4 m/s 729 mmHg 14%
    18:00 +36°C° 0 mm 3 m/s 730 mmHg 15%
    19:00 +35°C° 0 mm 3 m/s 730 mmHg 15%
    20:00 +34°C° 0 mm 4 m/s 731 mmHg 15%
    21:00 +33°C° 0 mm 4 m/s 731 mmHg 15%
    22:00 +32°C° 0 mm 4 m/s 731 mmHg 16%
    23:00 +31°C° 0 mm 3 m/s 731 mmHg 17%

    Mâine, 18 Noiembrie, Luni

    Timp Temperatura Precipitaţii Vânt Presiune Umiditate
    00:00 +30°C° 0 mm 3 m/s 731 mmHg 19%
    01:00 +30°C° 0 mm 3 m/s 731 mmHg 20%
    02:00 +29°C° 0 mm 3 m/s 730 mmHg 21%
    03:00 +29°C° 0 mm 3 m/s 730 mmHg 23%
    04:00 +28°C° 0 mm 3 m/s 730 mmHg 23%
    05:00 +28°C° 0 mm 3 m/s 731 mmHg 24%
    06:00 +27°C° 0 mm 3 m/s 731 mmHg 25%
    07:00 +29°C° 0 mm 4 m/s 731 mmHg 22%
    08:00 +32°C° 0 mm 5 m/s 732 mmHg 20%
    09:00 +35°C° 0 mm 6 m/s 732 mmHg 18%
    10:00 +36°C° 0 mm 6 m/s 732 mmHg 16%
    11:00 +39°C° 0 mm 5 m/s 732 mmHg 15%
    12:00 +41°C° 0 mm 5 m/s 731 mmHg 13%
    13:00 +41°C° 0 mm 5 m/s 731 mmHg 13%
    14:00 +41°C° 0 mm 4 m/s 730 mmHg 13%
    15:00 +42°C° 0 mm 4 m/s 729 mmHg 13%
    16:00 +40°C° 0 mm 4 m/s 729 mmHg 14%
    17:00 +37°C° 0 mm 3 m/s 729 mmHg 16%
    18:00 +35°C° 0 mm 3 m/s 730 mmHg 18%
    19:00 +34°C° 0 mm 3 m/s 730 mmHg 19%
    20:00 +34°C° 0 mm 3 m/s 731 mmHg 20%
    21:00 +33°C° 0 mm 3 m/s 731 mmHg 21%
    22:00 +32°C° 0 mm 4 m/s 731 mmHg 22%
    23:00 +30°C° 0 mm 4 m/s 731 mmHg 23%

    Poimâine, 19 Noiembrie, Marţi

    Timp Temperatura Precipitaţii Vânt Presiune Umiditate
    00:00 +30°C° 0 mm 4 m/s 731 mmHg 23%
    01:00 +29°C° 0 mm 4 m/s 731 mmHg 23%
    02:00 +28°C° 0 mm 4 m/s 731 mmHg 22%
    03:00 +28°C° 0 mm 4 m/s 731 mmHg 22%
    04:00 +27°C° 0 mm 4 m/s 731 mmHg 21%
    05:00 +27°C° 0 mm 4 m/s 731 mmHg 20%
    06:00 +27°C° 0 mm 4 m/s 731 mmHg 19%
    07:00 +29°C° 0 mm 4 m/s 732 mmHg 17%
    08:00 +32°C° 0 mm 4 m/s 732 mmHg 16%
    09:00 +34°C° 0 mm 5 m/s 733 mmHg 14%
    10:00 +36°C° 0 mm 5 m/s 732 mmHg 14%
    11:00 +38°C° 0 mm 4 m/s 732 mmHg 13%
    12:00 +41°C° 0 mm 4 m/s 731 mmHg 12%
    13:00 +41°C° 0 mm 4 m/s 731 mmHg 12%
    14:00 +40°C° 0 mm 3 m/s 730 mmHg 12%
    15:00 +42°C° 0 mm 3 m/s 730 mmHg 12%
    16:00 +39°C° 0 mm 3 m/s 729 mmHg 13%
    17:00 +36°C° 0 mm 2 m/s 729 mmHg 15%
    18:00 +34°C° 0 mm 2 m/s 729 mmHg 17%
    19:00 +34°C° 0 mm 2 m/s 730 mmHg 18%
    20:00 +32°C° 0 mm 2 m/s 730 mmHg 18%
    21:00 +31°C° 0 mm 2 m/s 731 mmHg 19%
    22:00 +30°C° 0 mm 2 m/s 731 mmHg 20%
    23:00 +29°C° 0 mm 2 m/s 731 mmHg 20%

    20 Noiembrie, Miercuri

    Timp Temperatura Precipitaţii Vânt Presiune Umiditate
    00:00 +29°C° 0 mm 2 m/s 731 mmHg 21%
    01:00 +28°C° 0 mm 2 m/s 731 mmHg 21%
    02:00 +27°C° 0 mm 3 m/s 731 mmHg 21%
    03:00 +27°C° 0 mm 3 m/s 730 mmHg 21%
    04:00 +26°C° 0 mm 3 m/s 731 mmHg 21%
    05:00 +25°C° 0 mm 3 m/s 731 mmHg 22%
    06:00 +25°C° 0 mm 3 m/s 731 mmHg 22%
    07:00 +27°C° 0 mm 3 m/s 732 mmHg 20%
    08:00 +30°C° 0 mm 4 m/s 732 mmHg 17%
    09:00 +33°C° 0 mm 4 m/s 733 mmHg 15%
    10:00 +35°C° 0 mm 4 m/s 732 mmHg 13%
    11:00 +37°C° 0 mm 4 m/s 732 mmHg 12%
    12:00 +40°C° 0 mm 4 m/s 731 mmHg 11%
    13:00 +41°C° 0 mm 4 m/s 731 mmHg 11%
    14:00 +40°C° 0 mm 3 m/s 730 mmHg 10%
    15:00 +42°C° 0 mm 3 m/s 730 mmHg 10%
    16:00 +38°C° 0 mm 3 m/s 730 mmHg 12%
    17:00 +36°C° 0 mm 2 m/s 730 mmHg 13%
    18:00 +34°C° 0 mm 2 m/s 730 mmHg 15%
    19:00 +32°C° 0 mm 2 m/s 730 mmHg 16%
    20:00 +31°C° 0 mm 2 m/s 731 mmHg 17%
    21:00 +31°C° 0 mm 2 m/s 732 mmHg 18%
    22:00 +30°C° 0 mm 3 m/s 731 mmHg 19%
    23:00 +29°C° 0 mm 3 m/s 731 mmHg 20%

    21 Noiembrie, Joi

    Timp Temperatura Precipitaţii Vânt Presiune Umiditate
    00:00 +28°C° 0 mm 3 m/s 731 mmHg 21%
    01:00 +28°C° 0 mm 3 m/s 731 mmHg 21%
    02:00 +28°C° 0 mm 3 m/s 731 mmHg 22%
    03:00 +27°C° 0 mm 4 m/s 730 mmHg 23%
    04:00 +27°C° 0 mm 4 m/s 730 mmHg 24%
    05:00 +26°C° 0 mm 4 m/s 730 mmHg 25%
    06:00 +26°C° 0 mm 4 m/s 731 mmHg 25%
    07:00 +28°C° 0 mm 5 m/s 731 mmHg 23%
    08:00 +32°C° 0 mm 5 m/s 732 mmHg 20%
    09:00 +34°C° 0 mm 6 m/s 732 mmHg 17%
    10:00 +36°C° 0 mm 6 m/s 732 mmHg 15%
    11:00 +39°C° 0 mm 6 m/s 731 mmHg 13%
    12:00 +41°C° 0 mm 6 m/s 731 mmHg 11%
    13:00 +42°C° 0 mm 5 m/s 730 mmHg 11%
    14:00 +42°C° 0 mm 5 m/s 730 mmHg 11%
    15:00 +42°C° 0 mm 4 m/s 729 mmHg 11%
    16:00 +39°C° 0 mm 3 m/s 729 mmHg 12%
    17:00 +37°C° 0 mm 3 m/s 729 mmHg 14%
    18:00 +35°C° 0 mm 2 m/s 729 mmHg 15%
    19:00 +34°C° 0 mm 2 m/s 730 mmHg 16%
    20:00 +33°C° 0 mm 3 m/s 730 mmHg 17%
    21:00 +31°C° 0 mm 3 m/s 731 mmHg 18%
    22:00 +30°C° 0 mm 3 m/s 731 mmHg 18%
    23:00 +30°C° 0 mm 3 m/s 731 mmHg 19%

    22 Noiembrie, Vineri

    Timp Temperatura Precipitaţii Vânt Presiune Umiditate
    00:00 +29°C° 0 mm 3 m/s 731 mmHg 19%
    01:00 +28°C° 0 mm 3 m/s 730 mmHg 21%
    02:00 +28°C° 0 mm 3 m/s 730 mmHg 22%
    03:00 +27°C° 0 mm 3 m/s 730 mmHg 23%
    04:00 +27°C° 0 mm 3 m/s 730 mmHg 24%
    05:00 +26°C° 0 mm 3 m/s 730 mmHg 26%
    06:00 +26°C° 0 mm 3 m/s 730 mmHg 27%
    07:00 +28°C° 0 mm 4 m/s 731 mmHg 23%
    08:00 +32°C° 0 mm 5 m/s 732 mmHg 20%
    09:00 +34°C° 0 mm 6 m/s 732 mmHg 17%
    10:00 +36°C° 0 mm 6 m/s 732 mmHg 15%
    11:00 +39°C° 0 mm 6 m/s 732 mmHg 13%
    12:00 +42°C° 0 mm 6 m/s 731 mmHg 11%
    13:00 +42°C° 0 mm 6 m/s 730 mmHg 11%
    14:00 +42°C° 0 mm 5 m/s 730 mmHg 11%
    15:00 +42°C° 0 mm 5 m/s 729 mmHg 11%
    16:00 +40°C° 0 mm 4 m/s 729 mmHg 12%
    17:00 +37°C° 0 mm 3 m/s 729 mmHg 14%
    18:00 +35°C° 0 mm 3 m/s 729 mmHg 15%
    19:00 +34°C° 0 mm 3 m/s 730 mmHg 16%
    20:00 +33°C° 0 mm 3 m/s 730 mmHg 17%
    21:00 +31°C° 0 mm 3 m/s 731 mmHg 17%
    22:00 +30°C° 0 mm 3 m/s 731 mmHg 18%
    23:00 +30°C° 0 mm 3 m/s 731 mmHg 18%
    Arată mai mult